Regional Weather Roundup
Issued by NWS Boston, MA

Current Version | Previous Version | Text Only | Print | Product List | Glossary Off
Versions: 1 2 3 4 5 6 7 8 9 10 11 12 13 14 15 16 17 18 19 20 21 22 23 24 25 26 27
000 ASUS41 KBOX 192110 RWRBOX REGIONAL WEATHER ROUNDUP NATIONAL WEATHER SERVICE BOSTON/NORTON MA 500 PM EDT TUE JUN 19 2018 NOTE: "FAIR" INDICATES FEW OR NO CLOUDS BELOW 12,000 FEET WITH NO SIGNIFICANT WEATHER AND/OR OBSTRUCTIONS TO VISIBILITY. MAZALL-192200- EASTERN MASSACHUSETTS CITY SKY/WX TMP DP RH WIND PRES REMARKS BOSTON FAIR 82 46 28 N10G26 29.76R BEVERLY FAIR 79 49 34 NW13G24 29.76R LAWRENCE FAIR 81 50 33 W15 29.78S BEDFORD FAIR 80 50 34 NW13 29.77R BLUE HILL N/A 78 49 35 NW13G25 29.78S NORWOOD FAIR 84 51 31 NW9 29.76S MARSHFIELD FAIR 81 52 36 N8 29.76R PLYMOUTH FAIR 82 49 31 NW14 29.76S TAUNTON FAIR 84 51 31 N10 29.75S NEW BEDFORD FAIR 84 53 34 N5 29.75R $$ MAZALL-192200- CAPE COD AND THE ISLANDS CITY SKY/WX TMP DP RH WIND PRES REMARKS FALMOUTH FAIR 79 55 44 N8G17 29.76S HYANNIS FAIR 76 57 51 N10 29.74S CHATHAM FAIR 78 54 43 N8G17 29.77R PROVINCETOWN FAIR 74 56 53 N6 29.77S NANTUCKET FAIR 76 58 53 N10 29.77R MARTHAS VNYRD FAIR 77 64 64 S7 29.76S $$ MAZALL-192200- CENTRAL AND WESTERN MASSACHUSETTS CITY SKY/WX TMP DP RH WIND PRES REMARKS WORCESTER FAIR 77 51 40 NW8 29.82S FITCHBURG FAIR 79 49 34 N15 29.80S ORANGE FAIR 79 46 31 N10 29.83R SPRINGFIELD MOSUNNY 83 50 31 N12 29.79S WESTFIELD FAIR 83 53 35 NW13G21 29.80R NORTH ADAMS NOT AVBL PITTSFIELD FAIR 78 48 34 N7G17 29.85S $$ RIZALL-192200- RHODE ISLAND CITY SKY/WX TMP DP RH WIND PRES REMARKS PROVIDENCE FAIR 83 52 34 NW12G20 29.77S NEWPORT FAIR 82 54 37 NW10 29.77R BLOCK ISLAND FAIR 80 55 42 N7 29.77S SMITHFIELD FAIR 81 52 36 VRB7G16 29.79S WESTERLY FAIR 86 52 30 N8 29.77S $$ CTZALL-192200- CONNECTICUT CITY SKY/WX TMP DP RH WIND PRES REMARKS BRADLEY INTL FAIR 83 53 35 N12G20 29.80R HARTFORD FAIR 84 53 34 N14 29.78S BRIDGEPORT FAIR 86 50 28 NW14 29.78S DANBURY SUNNY 82 48 30 NW12G18 29.83R GROTON FAIR 85 55 35 N12 29.76R NEW HAVEN FAIR 85 54 34 N16 29.78R CHESTER FAIR 86 52 30 N12 29.80R MERIDEN FAIR 85 52 32 N9G18 29.78S WILLIMANTIC FAIR 84 54 35 N12 29.78S OXFORD FAIR 81 55 40 N9G17 29.83R $$ MEZ002-015-021-024-NHZ003-005-008-011-012-014-VTZ005-008-192200- NORTHERN NEW ENGLAND CITY SKY/WX TMP DP RH WIND PRES REMARKS PORTLAND ME FAIR 77 45 32 NW16G30 29.75R BANGOR ME FAIR 75 46 35 NW20G29 29.71R CONCORD NH FAIR 78 48 34 NW16G22 29.79S MANCHESTER NH FAIR 81 42 25 NW18G26 29.77S NASHUA NH FAIR 80 51 36 NW10 29.79S PORTSMOUTH NH MOSUNNY 81 46 28 NW16 29.74R JAFFREY NH FAIR 77 47 34 N8 29.83S KEENE NH FAIR 80 47 31 N13 29.82R BURLINGTON VT FAIR 75 49 39 N12 29.87S MT. WASHINGTON MOSUNNY 41 37 87 NW47G59 N/A WCI 27 $$ NYZ052-076-192200- EASTERN NEW YORK CITY SKY/WX TMP DP RH WIND PRES REMARKS ALBANY FAIR 81 56 42 NE8 29.84S NEW YORK CITY FAIR 88 53 30 N12 29.78R $$ ANZALL-192200- MARINE OBSERVATIONS STATION/POSITION TIME TEMP WIND PRES VSBY WAVE AIR SEA DIR/SP/G HT/PER (UTC) (F) (DEG/KT/KT) (MB) (MI) (FT/S) BOSTON BUOY 2050 70 63 330/ 12/ 12 1007.1R 1/ 8 BUZZARDS BAY 2000 72 70/ 1/ 3 1008.0R NANTUCKET SOUND 2050 71 66 20/ 10/ 12 1007.3F 1/ 3 MASS BAY-STELLWA 2004 65 60 1005.9R 2/ 8 ISLE OF SHOALS 2000 75 320/ 16/ 17 1006.6S S OF BLOCK IS 2043 64 N/A 4/ 7 $$ ......................KEY......................... SKY/WX - SKY CONDITION/PRESENT WEATHER TMP - TEMPERATURE IN FAHRENHEIT DWPT - DEWPOINT IN FAHRENHEIT RH - RELATIVE HUMIDITY IN PERCENT WIND - DIRECTION AND SPEED IN MPH PRES - MEAN SEA LEVEL PRESSURE IN INCHES OF HG WCI - WIND CHILL INDEX VSB - VISIBILITY IN MILES HX - HEAT INDEX TC - TEMPERATURE IN CELSIUS VRB - VARIABLE WIND DIRECTION N/A - NOT AVAILABLE

USA.gov is the U.S. government's official web portal to all federal, state and local government web resources and services.